Location: Newark
(35.2672°N, 80.7344°W)
Time: 15:24:05
(UTC+00:00)

Tiros 1 - Pass Details

Date: 24 January 2020
Orbit: 631 x 664 km, 48.4° (Epoch: 26 February)

Event Time Altitude Azimuth Distance (km) Brightness Sun altitude
Rises 01:08:44 0° 304° (NW) 2,984 11.3 -29.9°
Reaches altitude 10° 01:11:05 10° 302° (WNW) 2,074 10.4 -30.4°
Enters shadow 01:14:08 38° 288° (WNW) 1,004 8.5 -31.0°
Maximum altitude 01:15:50 66° 220° (SW) 722 - -31.3°
Drops below altitude 10° 01:20:35 10° 139° (SE) 2,071 - -32.3°
Sets 01:22:56 0° 137° (SE) 2,980 - -32.8°
